Location: Houston
(29.7630°N, 95.3630°W)
Time: 11:08:40
(UTC-06:00)

Amateur Radio Satellites - All Passes

Search period start: 13 February 2016 10:38
Search period end: 14 February 2016 10:38
Location: Houston, 29.7630°N, 95.3630°W

Satellite Date Start Highest point End Downlink Frequencies (MHz)
Time Altitude Azimuth
UWE-3 13 Feb 10:42:28 10:45:01 16° 289° (WNW) 10:47:36 435.000/436.395/437.385
DX 1 13 Feb 10:43:52 10:46:05 14° 95° (E) 10:48:16 434.975-435.025
Cosmos 2499 13 Feb 10:52:39 11:00:22 35° 283° (WNW) 11:08:18 435.465 / 435.565
AO-85 13 Feb 10:59:09 11:01:30 13° 311° (NW) 11:03:53 145.980
POPSAT HIP 1 13 Feb 11:01:45 11:05:58 76° 78° (ENE) 11:10:11 437.405
DUCHIFAT 1 13 Feb 11:03:37 11:07:49 74° 77° (ENE) 11:12:01 145.980
NANOSAT C BR1 13 Feb 11:03:57 11:08:10 79° 77° (ENE) 11:12:23 145.865
DELFI C3 13 Feb 11:05:27 11:07:55 16° 290° (WNW) 11:10:23 145.870
UNISAT 6 13 Feb 11:07:35 11:10:31 18° 264° (W) 11:13:26 437.425
ESTCUBE 1 13 Feb 11:09:17 11:13:22 33° 98° (E) 11:17:25 437.505/2401.250
HUMSAT D 13 Feb 11:11:43 11:15:34 36° 286° (WNW) 11:19:27 437.325/437.525
QB50P1 13 Feb 11:14:01 11:18:13 73° 257° (WSW) 11:22:27 145.935-145.965
AIST 1 13 Feb 11:41:07 11:41:51 10° 286° (WNW) 11:42:35
BUGSAT 1 13 Feb 11:48:31 11:52:40 59° 259° (W) 11:56:47 437.445
VELOX 1 13 Feb 11:50:31 11:54:56 88° 282° (WNW) 11:59:18 145.980
UKube-1 13 Feb 11:58:57 12:03:15 77° 285° (WNW) 12:07:33 .
SPROUT 13 Feb 12:01:48 12:05:36 31° 98° (E) 12:09:22 437.525
50 SAT 13 Feb 12:04:35 12:08:05 35° 286° (WNW) 12:11:35 437.505
SRMSAT 13 Feb 12:05:31 12:10:28 28° 188° (S) 12:15:26 437.500
CUSAT 1 13 Feb 12:05:38 12:09:28 23° 71° (ENE) 12:12:34 437.405
AISAT 13 Feb 12:08:04 12:12:18 49° 285° (WNW) 12:16:32 437.250
POLYITAN 1 13 Feb 12:10:23 12:12:42 14° 265° (W) 12:15:00 437.675
QB50P2 13 Feb 12:10:59 12:13:09 14° 265° (W) 12:15:19 145.880/145.840
JUGNU 13 Feb 12:12:33 12:15:33 14° 198° (SSW) 12:18:34 437.505
CUBEBUG 1 13 Feb 12:16:18 12:20:30 49° 285° (WNW) 12:24:39 437.445
DX 1 13 Feb 12:18:22 12:22:19 36° 287° (WNW) 12:26:16 434.975-435.025
Oscar 19 13 Feb 12:23:19 12:27:42 29° 71° (ENE) 12:32:06 437.125/150
ESTCUBE 1 13 Feb 12:46:57 12:49:52 17° 291° (WNW) 12:52:47 437.505/2401.250
RS-15 13 Feb 12:48:08 12:57:37 31° 312° (NW) 13:07:35 29.354- 29.394
SO-50 13 Feb 12:52:00 12:55:56 25° 55° (NE) 12:59:45 436.795
JAS-2 13 Feb 13:06:23 13:14:00 65° 75° (ENE) 13:20:58 435.910
DANDE 13 Feb 13:11:21 13:17:22 74° 81° (E) 13:21:44 436.750
YUBILEINY 13 Feb 13:13:32 13:20:21 24° 74° (ENE) 13:27:04 435.215
Cosmos 2491 13 Feb 13:17:11 13:20:35 13° 80° (E) 13:23:59 435.465 / 435.565
ISS 13 Feb 13:20:03 13:23:07 39° 130° (SE) 13:26:10 145.825
Gurwin Techsat 1B 13 Feb 13:25:42 13:30:41 44° 73° (ENE) 13:35:42 435.225
TISAT 1 13 Feb 13:30:58 13:35:03 56° 285° (WNW) 13:39:07 437.305
SPROUT 13 Feb 13:38:44 13:41:16 16° 290° (WNW) 13:43:48 437.525
ITAMSAT 1 13 Feb 13:40:50 13:45:18 30° 71° (ENE) 13:49:48 435.822/435.867
CUSAT 1 13 Feb 13:48:39 13:51:17 15° 277° (W) 13:53:34 437.405
SWISSCUBE 13 Feb 13:49:01 13:53:22 34° 99° (E) 13:57:42 437.505
SRMSAT 13 Feb 13:55:28 13:59:07 17° 197° (SSW) 14:02:45 437.500
Oscar 19 13 Feb 14:02:41 14:06:54 25° 263° (W) 14:11:08 437.125/150
ITUPSAT 1 13 Feb 14:27:38 14:32:28 85° 103° (ESE) 14:37:17 437.325
SO-50 13 Feb 14:32:25 14:36:18 26° 250° (WSW) 14:40:04 436.795
BEESAT 13 Feb 14:33:24 14:38:13 81° 283° (WNW) 14:43:00 436.000
JAS-2 13 Feb 14:53:55 14:59:06 20° 265° (W) 15:04:05 435.910
AO-7 13 Feb 14:56:23 15:04:30 57° 69° (ENE) 15:12:37 29.400- 29.500
ISS 13 Feb 14:57:49 14:59:40 14° 324° (NW) 15:01:31 145.825
Gurwin Techsat 1B 13 Feb 15:07:24 15:10:44 17° 265° (W) 15:14:06 435.225
Cosmos 2491 13 Feb 15:07:26 15:16:09 89° 274° (W) 15:24:54 435.465 / 435.565
KKS-1 13 Feb 15:07:52 15:11:36 26° 98° (E) 15:15:18 437.445
YUBILEINY 13 Feb 15:08:54 15:17:28 58° 269° (W) 15:25:59 435.215
BEESAT 2 13 Feb 15:14:40 15:16:56 15° 108° (ESE) 15:19:11 435.950
ITAMSAT 1 13 Feb 15:20:34 15:24:41 24° 263° (W) 15:28:50 435.822/435.867
HORYU 2 13 Feb 15:27:22 15:31:00 26° 71° (ENE) 15:34:38 437.375
SWISSCUBE 13 Feb 15:27:34 15:30:52 19° 291° (WNW) 15:34:10 437.505
MOZHAYETS 4 13 Feb 15:31:27 15:34:44 19° 95° (E) 15:38:00
M-CUBED/EXP-1 PRIME 13 Feb 15:52:21 15:56:03 81° 254° (WSW) 15:59:30 437.505
AUBIESAT-1 13 Feb 15:58:24 16:02:04 85° 252° (WSW) 16:05:31 437.475
Cosmos 2504 13 Feb 16:02:44 16:11:06 69° 82° (E) 16:18:48 435.465 / 435.565
STARS 13 Feb 16:15:35 16:19:57 87° 283° (WNW) 16:24:19 437.465
BEESAT 3 13 Feb 16:18:50 16:22:39 45° 299° (WNW) 16:26:29 437.485
KKS-1 13 Feb 16:44:44 16:47:57 20° 290° (WNW) 16:51:09 437.445
BEESAT 2 13 Feb 16:50:54 16:54:30 31° 301° (WNW) 16:58:07 435.950
AO-7 13 Feb 16:50:57 16:57:28 25° 262° (W) 17:04:02 29.400- 29.500
O/OREOS (USA 219) 13 Feb 17:03:08 17:07:11 30° 67° (ENE) 17:11:13 437.305
HORYU 2 13 Feb 17:04:13 17:07:28 20° 263° (W) 17:10:44 437.375
MOZHAYETS 4 13 Feb 17:07:49 17:11:51 30° 287° (WNW) 17:15:53
Cosmos 2491 13 Feb 17:10:25 17:14:00 13° 291° (WNW) 17:17:37 435.465 / 435.565
CUTE-I 13 Feb 17:27:45 17:32:39 39° 72° (ENE) 17:37:34 437.470
RS-15 13 Feb 17:33:40 17:37:22 12° 26° (NNE) 17:41:06 29.354- 29.394
AIST 2 13 Feb 17:40:33 17:44:41 71° 114° (ESE) 17:48:50 435.215
Cubesat XI-IV 13 Feb 17:42:31 17:47:41 56° 74° (ENE) 17:52:54 437.490
AO-85 13 Feb 17:54:52 17:57:56 16° 50° (NE) 18:00:52 145.980
Cosmos 2504 13 Feb 17:58:29 18:03:25 17° 279° (W) 18:08:10 435.465 / 435.565
LilacSat-2 13 Feb 17:58:50 18:02:38 71° 77° (ENE) 18:06:25 437.200
CUBESAT XI-V 13 Feb 17:59:30 18:04:12 85° 102° (ESE) 18:08:51 437.345
BRITE-PL 13 Feb 18:20:45 18:26:25 74° 77° (ENE) 18:31:58 437.365/2234.400
DOVE 4 13 Feb 18:27:06 18:30:40 20° 71° (ENE) 18:34:06 437.250
HO-68 13 Feb 18:31:55 18:36:25 18° 62° (ENE) 18:40:57 435.675
GONETS M04 13 Feb 18:40:05 18:45:54 19° 72° (ENE) 18:51:43
O/OREOS (USA 219) 13 Feb 18:43:10 18:46:18 18° 260° (W) 18:49:26 437.305
STRAND 1 13 Feb 18:45:01 18:49:19 26° 97° (E) 18:53:35 437.568
PCSat 13 Feb 19:00:20 19:04:48 26° 58° (ENE) 19:09:14 145.827
GOMX 1 13 Feb 19:05:07 19:10:32 78° 258° (WSW) 19:15:44 467.674
CUTE-I 13 Feb 19:09:02 19:12:44 19° 264° (W) 19:16:28 437.470
PRISM 13 Feb 19:19:26 19:21:40 14° 95° (E) 19:23:53 437.425
Cubesat XI-IV 13 Feb 19:25:37 19:28:00 13° 266° (W) 19:30:23 437.490
SEEDS 13 Feb 19:27:52 19:31:05 22° 72° (ENE) 19:34:19 437.485
CUTE 1.7 + AOD 2 13 Feb 19:28:35 19:32:17 31° 73° (ENE) 19:36:01 437.475
AAUSAT CUBESAT 2 13 Feb 19:31:41 19:33:45 14° 70° (ENE) 19:35:51 437.432
AO-85 13 Feb 19:34:04 19:38:46 47° 248° (WSW) 19:43:03 145.980
RS-15 13 Feb 19:42:37 19:54:11 45° 55° (NE) 20:05:45 29.354- 29.394
UWE-3 13 Feb 19:58:17 20:00:05 12° 69° (ENE) 20:01:51 435.000/436.395/437.385
DOVE 4 13 Feb 20:03:27 20:08:06 35° 262° (W) 20:12:33 437.250
BRITE-PL 13 Feb 20:03:48 20:05:09 11° 268° (W) 20:06:31 437.365/2234.400
CUBEBUG 2 13 Feb 20:05:02 20:08:24 23° 72° (ENE) 20:11:43 437.445
CANX-2 13 Feb 20:13:59 20:18:05 55° 259° (W) 20:22:14 2200.000
HO-68 13 Feb 20:16:16 20:23:23 69° 257° (WSW) 20:30:34 435.675
STRAND 1 13 Feb 20:24:03 20:28:20 27° 290° (WNW) 20:32:37 437.568
CINEMA 3 13 Feb 20:26:07 20:30:40 57° 259° (W) 20:35:03 145.822/145.860
GONETS M04 13 Feb 20:34:35 20:43:20 71° 268° (W) 20:52:07
COMPASS 1 13 Feb 20:40:22 20:44:26 57° 259° (W) 20:48:32 437.405
ZACube-1 13 Feb 20:40:28 20:44:03 28° 73° (ENE) 20:47:37 437.345
PCSat 13 Feb 20:43:21 20:48:08 33° 252° (WSW) 20:52:55 145.827
FUNcube-1 13 Feb 20:47:03 20:50:47 32° 74° (ENE) 20:54:29 145.935
Cosmos 2499 13 Feb 20:51:10 20:59:14 65° 82° (E) 21:06:37 435.465 / 435.565
PRISM 13 Feb 20:53:19 20:57:01 31° 287° (WNW) 21:00:41 437.425
SEEDS 13 Feb 21:03:30 21:06:39 21° 264° (W) 21:09:50 437.485
AAUSAT CUBESAT 2 13 Feb 21:05:11 21:08:55 33° 262° (W) 21:12:41 437.432
CUTE 1.7 + AOD 2 13 Feb 21:05:47 21:08:09 15° 266° (W) 21:10:32 437.475
Oscar 11 13 Feb 21:12:40 21:16:57 79° 259° (WSW) 21:21:15 145.826/435.025
ISS 13 Feb 21:28:38 21:31:35 32° 42° (NE) 21:34:32 145.825
UWE-3 13 Feb 21:32:13 21:36:11 38° 261° (W) 21:40:06 435.000/436.395/437.385
CUBEBUG 2 13 Feb 21:41:38 21:44:54 21° 263° (W) 21:48:07 437.445
DELFI C3 13 Feb 21:44:10 21:48:04 60° 260° (W) 21:52:01 145.870
AIST 1 13 Feb 21:50:23 21:54:42 74° 265° (W) 21:58:56
RS-15 13 Feb 21:55:10 22:06:36 48° 252° (WSW) 22:18:02 29.354- 29.394
HUMSAT D 13 Feb 21:56:41 22:00:43 67° 77° (ENE) 22:04:46 437.325/437.525
ESTCUBE 1 13 Feb 22:04:14 22:06:51 15° 69° (ENE) 22:09:30 437.505/2401.250
PHONESAT 2.4 13 Feb 22:08:33 22:11:46 58° 147° (SSE) 22:15:01 2401.200-2431.200
ANTELSAT 13 Feb 22:12:04 22:16:03 32° 98° (E) 22:20:06 437.575/2403.000
TIGRISAT 13 Feb 22:17:20 22:21:24 35° 99° (E) 22:25:30 435.000
ZACube-1 13 Feb 22:17:44 22:20:19 16° 264° (W) 22:22:53 437.345
FUNcube-1 13 Feb 22:24:55 22:27:04 14° 265° (W) 22:29:12 145.935
50 SAT 13 Feb 22:38:38 22:42:04 38° 75° (ENE) 22:45:32 437.505
VELOX 1 13 Feb 22:41:54 22:46:01 37° 73° (ENE) 22:50:08 145.980
Cosmos 2499 13 Feb 22:46:32 22:51:21 18° 279° (W) 22:55:59 435.465 / 435.565
UKube-1 13 Feb 22:47:33 22:51:35 39° 74° (ENE) 22:55:37 .
SPROUT 13 Feb 22:51:48 22:53:25 12° 68° (ENE) 22:55:00 437.525
POPSAT HIP 1 13 Feb 22:53:32 22:56:34 19° 96° (E) 22:59:35 437.405
DUCHIFAT 1 13 Feb 22:54:52 22:57:47 18° 96° (E) 23:00:42 145.980
NANOSAT C BR1 13 Feb 22:55:20 22:58:25 20° 96° (E) 23:01:29 145.865
AISAT 13 Feb 22:59:03 23:03:29 66° 75° (ENE) 23:07:54 437.250
UNISAT 6 13 Feb 23:03:26 23:07:45 56° 284° (WNW) 23:12:09 437.425
QB50P1 13 Feb 23:05:14 23:08:50 27° 98° (E) 23:12:26 145.935-145.965
CUBEBUG 1 13 Feb 23:05:46 23:10:08 61° 76° (ENE) 23:14:30 437.445
ISS 13 Feb 23:06:01 23:07:46 14° 234° (SW) 23:09:31 145.825
DX 1 13 Feb 23:07:12 23:11:35 87° 76° (ENE) 23:15:59 434.975-435.025
BUGSAT 1 13 Feb 23:36:47 23:40:18 29° 98° (E) 23:43:47 437.445
ESTCUBE 1 13 Feb 23:39:09 23:43:18 36° 261° (W) 23:47:31 437.505/2401.250
PHONESAT 2.4 13 Feb 23:46:28 23:49:10 23° 341° (NNW) 23:51:54 2401.200-2431.200
ANTELSAT 13 Feb 23:49:42 23:52:29 17° 290° (WNW) 23:55:19 437.575/2403.000
TIGRISAT 13 Feb 23:55:14 23:57:46 15° 290° (WNW) 00:00:18 435.000
POLYITAN 1 13 Feb 23:59:16 00:03:22 54° 285° (WNW) 00:07:29 437.675
QB50P2 13 Feb 23:59:42 00:03:48 51° 284° (WNW) 00:07:53 145.880/145.840
TISAT 1 14 Feb 00:16:32 00:20:34 45° 74° (ENE) 00:24:35 437.305
VELOX 1 14 Feb 00:20:12 00:22:32 14° 265° (W) 00:24:54 145.980
SPROUT 14 Feb 00:24:53 00:28:57 42° 261° (W) 00:33:02 437.525
UKube-1 14 Feb 00:25:52 00:27:43 13° 265° (W) 00:29:35 .
POPSAT HIP 1 14 Feb 00:28:52 00:32:15 24° 288° (WNW) 00:35:39 437.405
DANDE 14 Feb 00:29:02 00:34:16 20° 83° (E) 00:39:46 436.750
DUCHIFAT 1 14 Feb 00:30:00 00:33:25 25° 288° (WNW) 00:36:50 145.980
NANOSAT C BR1 14 Feb 00:30:42 00:34:03 23° 288° (WNW) 00:37:23 145.865
QB50P1 14 Feb 00:41:38 00:44:22 17° 290° (WNW) 00:47:07 145.935-145.965
Oscar 19 14 Feb 00:41:49 00:44:56 16° 95° (E) 00:48:02 437.125/150
BEESAT 3 14 Feb 00:43:05 00:45:28 15° 54° (NE) 00:47:49 437.485
SWISSCUBE 14 Feb 00:50:23 00:53:50 20° 69° (ENE) 00:57:18 437.505
CUSAT 1 14 Feb 00:56:59 01:04:43 59° 93° (E) 01:12:34 437.405
BUGSAT 1 14 Feb 01:13:09 01:15:23 15° 290° (WNW) 01:17:38 437.445
BEESAT 2 14 Feb 01:14:58 01:18:06 22° 57° (ENE) 01:21:13 435.950
PHONESAT 2.4 14 Feb 01:25:38 01:27:10 13° 358° (N) 01:28:41 2401.200-2431.200
Cosmos 2491 14 Feb 01:25:52 01:33:41 35° 77° (ENE) 01:41:27 435.465 / 435.565
ITUPSAT 1 14 Feb 01:28:23 01:32:56 48° 74° (ENE) 01:37:33 437.325
BEESAT 14 Feb 01:33:41 01:38:20 57° 75° (ENE) 01:43:01 436.000
Gurwin Techsat 1B 14 Feb 01:48:19 01:52:54 29° 98° (E) 01:57:26 435.225
TISAT 1 14 Feb 01:56:02 01:56:22 10° 266° (W) 01:56:43 437.305
ITAMSAT 1 14 Feb 02:00:26 02:03:55 18° 95° (E) 02:07:22 435.822/435.867
KKS-1 14 Feb 02:02:01 02:03:49 12° 68° (ENE) 02:05:35 437.445
YUBILEINY 14 Feb 02:06:24 02:13:59 34° 86° (E) 02:21:35 435.215
JAS-2 14 Feb 02:08:30 02:13:53 89° 277° (W) 02:19:02 435.910
DANDE 14 Feb 02:08:33 02:16:14 73° 278° (W) 02:24:46 436.750
Oscar 19 14 Feb 02:19:32 02:24:21 42° 287° (WNW) 02:29:09 437.125/150
BEESAT 3 14 Feb 02:19:45 02:23:15 31° 248° (WSW) 02:26:43 437.485
SWISSCUBE 14 Feb 02:27:12 02:31:22 30° 262° (W) 02:35:35 437.505
CUSAT 1 14 Feb 02:40:53 02:47:15 26° 286° (WNW) 02:53:39 437.405
BEESAT 2 14 Feb 02:52:49 02:55:50 21° 250° (WSW) 02:58:50 435.950
SO-50 14 Feb 02:59:48 03:04:06 32° 111° (ESE) 03:08:29 436.795
PHONESAT 2.4 14 Feb 03:02:53 03:05:15 18° 15° (NNE) 03:07:36 2401.200-2431.200
AO-7 14 Feb 03:05:49 03:12:31 27° 98° (E) 03:19:09 29.400- 29.500
STARS 14 Feb 03:06:22 03:10:24 37° 74° (ENE) 03:14:27 437.465
ITUPSAT 1 14 Feb 03:09:00 03:10:57 12° 266° (W) 03:12:55 437.325
BEESAT 14 Feb 03:16:05 03:16:23 10° 267° (W) 03:16:40 436.000
Cosmos 2491 14 Feb 03:22:27 03:30:23 40° 272° (W) 03:38:22 435.465 / 435.565
Gurwin Techsat 1B 14 Feb 03:28:18 03:32:39 26° 290° (WNW) 03:37:00 435.225
KKS-1 14 Feb 03:35:40 03:39:56 45° 260° (W) 03:44:13 437.445
ITAMSAT 1 14 Feb 03:38:34 03:43:27 41° 288° (WNW) 03:48:19 435.822/435.867
AIST 2 14 Feb 03:45:53 03:49:59 73° 245° (WSW) 03:54:03 435.215
DANDE 14 Feb 03:57:42 04:00:30 12° 295° (WNW) 04:03:22 436.750
YUBILEINY 14 Feb 04:02:20 04:10:27 41° 282° (WNW) 04:18:39 435.215
MOZHAYETS 4 14 Feb 04:02:54 04:07:25 65° 259° (W) 04:11:58
Cosmos 2504 14 Feb 04:31:38 04:40:03 68° 92° (E) 04:48:51 435.465 / 435.565
PHONESAT 2.4 14 Feb 04:39:33 04:42:49 79° 31° (NNE) 04:46:04 2401.200-2431.200
SO-50 14 Feb 04:40:44 04:44:36 23° 305° (NW) 04:48:31 436.795
JUGNU 14 Feb 04:43:12 04:46:24 15° 162° (SSE) 04:49:37 437.505
STARS 14 Feb 04:44:36 04:46:51 14° 265° (W) 04:49:04 437.465
CUBESAT XI-V 14 Feb 04:56:42 05:01:04 40° 74° (ENE) 05:05:29 437.345
AO-7 14 Feb 04:57:27 05:05:27 54° 291° (WNW) 05:13:24 29.400- 29.500
HORYU 2 14 Feb 04:59:46 05:04:12 66° 284° (WNW) 05:08:37 437.375
M-CUBED/EXP-1 PRIME 14 Feb 05:11:36 05:14:55 36° 289° (WNW) 05:18:26 437.505
AUBIESAT-1 14 Feb 05:17:03 05:20:26 38° 289° (WNW) 05:24:03 437.475
LilacSat-2 14 Feb 05:40:15 05:41:43 12° 94° (E) 05:43:11 437.200
CUTE-I 14 Feb 05:51:14 05:55:41 26° 97° (E) 06:00:07 437.470
STRAND 1 14 Feb 05:55:34 05:59:19 21° 69° (ENE) 06:03:04 437.568
Cubesat XI-IV 14 Feb 06:06:04 06:11:03 37° 99° (E) 06:16:00 437.490
PHONESAT 2.4 14 Feb 06:18:35 06:19:43 11° 221° (SW) 06:20:51 2401.200-2431.200
Cosmos 2504 14 Feb 06:27:56 06:34:02 21° 288° (WNW) 06:40:19 435.465 / 435.565
SRMSAT 14 Feb 06:29:07 06:31:32 12° 161° (SSE) 06:33:56 437.500
JUGNU 14 Feb 06:29:59 06:34:55 26° 171° (S) 06:39:48 437.505
BRITE-PL 14 Feb 06:33:09 06:37:10 33° 97° (E) 06:40:58 437.365/2234.400
CUBESAT XI-V 14 Feb 06:36:00 06:38:33 14° 266° (W) 06:41:06 437.345
O/OREOS (USA 219) 14 Feb 07:08:48 07:13:15 75° 288° (WNW) 07:17:46 437.305
LilacSat-2 14 Feb 07:12:43 07:16:03 30° 286° (WNW) 07:19:23 437.200
GOMX 1 14 Feb 07:13:56 07:18:00 46° 99° (E) 07:21:59 467.674
CUTE-I 14 Feb 07:31:01 07:35:37 30° 290° (WNW) 07:40:12 437.470
GONETS M04 14 Feb 07:33:22 07:40:11 27° 85° (E) 07:47:01
STRAND 1 14 Feb 07:33:36 07:38:12 34° 262° (W) 07:42:51 437.568
PRISM 14 Feb 07:36:09 07:40:17 77° 77° (ENE) 07:44:29 437.425
Cubesat XI-IV 14 Feb 07:46:52 07:50:49 21° 292° (WNW) 07:54:45 437.490
HO-68 14 Feb 07:51:10 07:57:30 33° 99° (E) 08:03:47 435.675
AO-85 14 Feb 08:02:17 08:06:09 21° 108° (ESE) 08:10:09 145.980
CANX-2 14 Feb 08:05:03 08:09:04 38° 99° (E) 08:13:05 2200.000
DOVE 4 14 Feb 08:08:18 08:12:27 75° 283° (WNW) 08:16:35 437.250
BRITE-PL 14 Feb 08:12:52 08:15:17 15° 292° (WNW) 08:17:38 437.365/2234.400
SRMSAT 14 Feb 08:15:26 08:20:09 24° 169° (S) 08:24:50 437.500
JUGNU 14 Feb 08:18:16 08:23:29 32° 181° (S) 08:28:40 437.505
CINEMA 3 14 Feb 08:26:40 08:30:45 50° 100° (E) 08:34:55 145.822/145.860
COMPASS 1 14 Feb 08:29:27 08:33:19 34° 98° (E) 08:37:09 437.405
SEEDS 14 Feb 08:52:11 08:56:28 82° 283° (WNW) 09:00:43 437.485
AAUSAT CUBESAT 2 14 Feb 08:53:07 08:57:15 56° 100° (E) 09:01:22 437.432
CUTE 1.7 + AOD 2 14 Feb 08:54:39 08:58:51 54° 284° (WNW) 09:03:02 437.475
Oscar 11 14 Feb 09:06:14 09:10:02 29° 98° (E) 09:13:49 145.826/435.025
ANTELSAT 14 Feb 09:06:56 09:09:05 14° 69° (ENE) 09:11:15 437.575/2403.000
TIGRISAT 14 Feb 09:11:48 09:14:13 15° 70° (ENE) 09:16:38 435.000
Cosmos 2499 14 Feb 09:18:05 09:26:37 64° 91° (E) 09:35:21 435.465 / 435.565
UWE-3 14 Feb 09:27:09 09:31:24 63° 101° (E) 09:35:45 435.000/436.395/437.385
GONETS M04 14 Feb 09:28:05 09:36:25 51° 280° (W) 09:44:50
DELFI C3 14 Feb 09:28:32 09:31:58 26° 97° (E) 09:35:22 145.870
PCSat 14 Feb 09:34:57 09:40:20 78° 112° (ESE) 09:45:46 145.827
CUBEBUG 2 14 Feb 09:36:57 09:41:11 66° 283° (WNW) 09:45:31 437.445
HO-68 14 Feb 09:38:37 09:45:05 37° 292° (WNW) 09:51:32 435.675
AO-85 14 Feb 09:41:24 09:46:20 40° 302° (WNW) 09:51:30 145.980
CANX-2 14 Feb 09:42:31 09:44:33 13° 291° (WNW) 09:46:35 2200.000
HUMSAT D 14 Feb 09:47:05 09:49:55 17° 96° (E) 09:52:47 437.325/437.525
UNISAT 6 14 Feb 09:56:16 10:00:31 58° 76° (ENE) 10:04:42 437.425
RS-15 14 Feb 09:58:22 10:08:42 49° 108° (ESE) 10:19:28 29.354- 29.394
SRMSAT 14 Feb 10:03:41 10:08:51 31° 179° (S) 10:14:01 437.500
COMPASS 1 14 Feb 10:06:17 10:08:32 14° 291° (WNW) 10:10:46 437.405
JUGNU 14 Feb 10:07:18 10:12:02 25° 191° (S) 10:16:46 437.505
ZACube-1 14 Feb 10:09:58 10:14:10 55° 284° (WNW) 10:18:27 437.345
AIST 1 14 Feb 10:12:58 10:17:21 87° 101° (E) 10:21:46
FUNcube-1 14 Feb 10:16:27 10:20:34 47° 285° (WNW) 10:24:46 145.935
